User: anonymous   Login
Location: Muenchen
(48.1800°N, 11.5800°E)
Time: 15:56:27
(UTC+02:00)
Language:

Sich 1 Rocket - Orbit

View from above orbital plane
View from above orbital plane
View from above satellite
View from above satellite

Ground track
Ground track

The orbit data is extracted from the following two-line orbital elements,

1 23659U 95046C   17234.56767726 +.00000106 +00000-0 +11371-4 0  9996
2 23659 082.5277 243.8516 0026162 020.3410 126.4700 14.78249675184033
Epoch (UTC): 22 August 2017 13:37:27
Eccentricity: 0.0026162
inclination: 82.5277°
perigee height: 616 km
apogee height: 653 km
right ascension of ascending node: 243.8516°
argument of perigee: 20.3410°
revolutions per day: 14.78249675
mean anomaly at epoch: 126.4700°
orbit number at epoch: 18403

The dashed part of the orbit path shows where the satellite is in the earth's shadow,  

DLR